#�ϑ�����,���ϕ���,���ϕ���,�ő啗��,�ő啗����������,�ő�u�ԕ���,�ő�u�ԕ�����������
#(�N����),(m/s)   ,(16����),(m/s)   ,(16����)        ,(m/s)       ,(16����)            
2013/1/18 0:01,1.1,4,1.1,1,2.5,14
2013/1/18 0:02,0.9,3,1,1,2.1,5
2013/1/18 0:03,0.9,4,0.9,1,2.5,3
2013/1/18 0:04,1,4,1,2,2.2,6
2013/1/18 0:05,1,4,1,2,1.1,5
2013/1/18 0:06,1.1,5,1.1,2,4.8,8
2013/1/18 0:07,1.3,6,1.3,2,4.9,9
2013/1/18 0:08,1.5,6,1.5,6,5,10
2013/1/18 0:09,1.7,6,1.7,6,6.2,9
2013/1/18 0:10,1.9,7,1.9,7,4.5,8
2013/1/18 0:11,1.9,8,1.9,7,2.9,9
2013/1/18 0:12,2,8,2,8,1.8,12
2013/1/18 0:13,1.9,8,1.9,8,1.6,9
2013/1/18 0:14,2,9,2,8,2.5,9
2013/1/18 0:15,2.1,9,2.1,9,1.8,10
2013/1/18 0:16,1.9,10,2.1,9,1,12
2013/1/18 0:17,1.7,10,1.9,9,1.8,12
2013/1/18 0:18,1.7,10,1.7,9,2.6,14
2013/1/18 0:19,1.4,11,1.7,9,2,13
2013/1/18 0:20,1.3,11,1.4,9,2.2,9
2013/1/18 0:21,1.2,11,1.3,9,2.2,9
2013/1/18 0:22,1.3,11,1.3,9,3.1,6
2013/1/18 0:23,1.5,12,1.5,9,5.6,16
2013/1/18 0:24,1.6,12,1.6,9,4.5,16
2013/1/18 0:25,1.7,14,1.7,9,4.1,1
2013/1/18 0:26,1.8,15,1.8,10,3.7,2
2013/1/18 0:27,1.8,16,1.8,14,2.7,15
2013/1/18 0:28,1.8,1,1.8,14,3.2,1
2013/1/18 0:29,1.9,2,1.9,1,3.5,5
2013/1/18 0:30,2.3,2,2.3,2,9.3,16
2013/1/18 0:31,2.6,1,2.6,2,7.4,16
2013/1/18 0:32,3,1,3,1,8.4,1
2013/1/18 0:33,3.2,1,3.2,1,8.7,16
2013/1/18 0:34,3.2,1,3.3,1,8.3,15
2013/1/18 0:35,3.1,1,3.2,1,3.7,1
2013/1/18 0:36,3.5,1,3.5,1,11.1,16
2013/1/18 0:37,3.9,1,3.9,1,8.6,16
2013/1/18 0:38,4.1,1,4.1,1,7,15
2013/1/18 0:39,4.6,16,4.6,16,11.1,16
2013/1/18 0:40,4.6,16,4.7,16,10.5,16
2013/1/18 0:41,4.7,16,4.7,16,9.4,2
2013/1/18 0:42,5,16,5,16,13.2,16
2013/1/18 0:43,4.8,16,5,16,7.2,15
2013/1/18 0:44,5,16,5,16,9.9,16
2013/1/18 0:45,5.5,16,5.5,16,13.8,1
2013/1/18 0:46,5.5,16,5.6,16,10.8,16
2013/1/18 0:47,5.4,16,5.5,16,8.5,15
2013/1/18 0:48,5.6,16,5.6,16,13.8,16
2013/1/18 0:49,5.5,16,5.7,16,13.6,16
2013/1/18 0:50,5.2,16,5.4,16,4.5,15
2013/1/18 0:51,4.8,16,5.1,16,4.7,16
2013/1/18 0:52,4.3,16,4.7,16,6.2,16
2013/1/18 0:53,4.5,16,4.5,16,10,12
2013/1/18 0:54,4.4,16,4.7,16,10.5,14
2013/1/18 0:55,4,16,4.4,16,6.5,1
2013/1/18 0:56,3.7,16,3.9,16,4.9,2
2013/1/18 0:57,3.7,16,3.7,16,7.1,16
2013/1/18 0:58,3.5,16,3.7,16,7.9,16
2013/1/18 0:59,3.3,16,3.5,16,9.1,1
2013/1/18 1:00,3.4,16,3.4,16,6.1,16
2013/1/18 1:01,3.5,16,3.5,16,6.8,1
2013/1/18 1:02,4,16,4,16,11.7,2
2013/1/18 1:03,4,16,4.1,16,10.2,2
2013/1/18 1:04,4.1,1,4.1,16,9.3,15
2013/1/18 1:05,4.7,16,4.7,16,12.7,16
2013/1/18 1:06,5,16,5,16,10.7,2
2013/1/18 1:07,5.2,16,5.2,16,9.4,16
2013/1/18 1:08,5.2,16,5.2,16,8.2,15
2013/1/18 1:09,5.2,1,5.2,16,9.4,2
2013/1/18 1:10,5.4,1,5.4,1,9,2
2013/1/18 1:11,5.5,1,5.5,1,7.7,16
2013/1/18 1:12,5.1,16,5.4,1,9.4,15
2013/1/18 1:13,4.9,16,5,1,7.5,1
2013/1/18 1:14,5,16,5,1,8.7,1
2013/1/18 1:15,5,16,5,1,11.5,16
2013/1/18 1:16,4.8,16,5,1,10.3,1
2013/1/18 1:17,4.5,16,4.8,1,3.9,12
2013/1/18 1:18,4.3,16,4.5,1,4.1,1
2013/1/18 1:19,4.4,16,4.4,1,12.6,16
2013/1/18 1:20,4.4,16,4.5,1,12.7,16
2013/1/18 1:21,4.2,16,4.4,1,2.2,5
2013/1/18 1:22,4,16,4.2,16,7.5,16
2013/1/18 1:23,4.2,16,4.2,16,11.6,15
2013/1/18 1:24,4,16,4.1,16,4.9,12
2013/1/18 1:25,3.5,15,4,16,6.7,9
2013/1/18 1:26,3.2,15,3.4,16,3,3
2013/1/18 1:27,3.4,16,3.4,16,7.2,2
2013/1/18 1:28,3.6,16,3.6,16,9.3,15
2013/1/18 1:29,3.4,16,3.6,16,6.7,1
2013/1/18 1:30,3.4,16,3.4,16,5.8,16
2013/1/18 1:31,3.6,16,3.6,16,5.5,15
2013/1/18 1:32,3.9,16,3.9,16,7.8,16
2013/1/18 1:33,3.9,16,3.9,16,12.5,16
2013/1/18 1:34,3.9,16,4,16,5.8,15
2013/1/18 1:35,3.8,16,3.8,16,3.3,1
2013/1/18 1:36,3.9,16,3.9,16,4.9,1
2013/1/18 1:37,3.8,16,3.9,16,6.2,16
2013/1/18 1:38,3.6,16,3.8,16,4.2,16
2013/1/18 1:39,3.3,16,3.6,16,2.9,14
2013/1/18 1:40,3,16,3.3,16,3.6,7
2013/1/18 1:41,2.8,1,3,16,2.4,3
2013/1/18 1:42,2.6,1,2.8,16,6.1,1
2013/1/18 1:43,2.3,1,2.6,16,8.6,2
2013/1/18 1:44,2.4,1,2.4,1,5.4,15
2013/1/18 1:45,2.3,1,2.4,1,3.8,7
2013/1/18 1:46,2.7,1,2.7,16,11,16
2013/1/18 1:47,2.9,1,2.9,16,9.7,15
2013/1/18 1:48,3.1,1,3.1,16,8.2,1
2013/1/18 1:49,3.2,1,3.2,16,5.2,1
2013/1/18 1:50,3.2,16,3.2,1,4.1,16
2013/1/18 1:51,3.5,16,3.5,16,4.8,16
2013/1/18 1:52,3.4,16,3.5,16,5.8,1
2013/1/18 1:53,3.3,16,3.4,16,5.8,14
2013/1/18 1:54,3.2,16,3.3,16,3.7,11
2013/1/18 1:55,3.3,16,3.3,16,6.1,2
2013/1/18 1:56,3.1,16,3.4,16,6.8,16
2013/1/18 1:57,3.1,16,3.1,16,7.5,16
2013/1/18 1:58,3,16,3.1,16,6.3,15
2013/1/18 1:59,3,16,3,16,3.5,16
2013/1/18 2:00,3,16,3.1,16,2.5,15
2013/1/18 2:01,2.9,16,3,16,3.5,1
2013/1/18 2:02,2.9,16,3,16,5.2,1
2013/1/18 2:03,3,16,3,16,8.7,1
2013/1/18 2:04,3.4,16,3.4,16,11.1,16
2013/1/18 2:05,3.6,16,3.6,16,7.9,1
2013/1/18 2:06,4,16,4,16,15,16
2013/1/18 2:07,3.9,16,4.1,16,9.5,15
2013/1/18 2:08,3.9,16,3.9,16,6.4,2
2013/1/18 2:09,4,1,4,16,5.5,2
2013/1/18 2:10,4.2,1,4.2,1,5.8,16
2013/1/18 2:11,4.7,1,4.7,1,13.4,1
2013/1/18 2:12,4.8,16,4.8,1,8.4,1
2013/1/18 2:13,4.9,16,4.9,16,6.8,16
2013/1/18 2:14,4.6,1,4.9,16,6.3,16
2013/1/18 2:15,4.6,16,4.7,16,9.3,16
2013/1/18 2:16,4,1,4.6,16,4.3,1
2013/1/18 2:17,3.9,1,3.9,16,5,16
2013/1/18 2:18,4,1,4.1,16,7.8,2
2013/1/18 2:19,4.1,1,4.1,16,7.2,16
2013/1/18 2:20,4.1,1,4.1,16,7.6,16
2013/1/18 2:21,3.9,16,4,16,10.3,13
2013/1/18 2:22,4.1,16,4.1,16,9.8,13
2013/1/18 2:23,3.9,16,4.1,16,4.9,2
2013/1/18 2:24,4.3,16,4.3,1,11,16
2013/1/18 2:25,4.1,16,4.4,1,8.7,15
2013/1/18 2:26,4.2,16,4.2,16,6.2,15
2013/1/18 2:27,4.3,16,4.4,16,7.1,16
2013/1/18 2:28,4.3,16,4.3,16,9.4,1
2013/1/18 2:29,4.5,16,4.5,16,9.3,16
2013/1/18 2:30,4.5,16,4.5,16,7,15
2013/1/18 2:31,4.5,16,4.7,16,7.4,16
2013/1/18 2:32,4.5,16,4.5,16,9.5,16
2013/1/18 2:33,4.6,16,4.6,16,9.5,15
2013/1/18 2:34,4.3,16,4.6,16,6.5,16
2013/1/18 2:35,4.7,16,4.7,16,10.2,16
2013/1/18 2:36,4.8,16,4.8,16,7.6,1
2013/1/18 2:37,4.7,16,4.8,16,4.5,1
2013/1/18 2:38,4.5,16,4.7,16,5.8,14
2013/1/18 2:39,4.5,16,4.5,16,6.3,16
2013/1/18 2:40,4.4,16,4.6,16,7,16
2013/1/18 2:41,4.2,16,4.4,16,4.5,1
2013/1/18 2:42,4.1,16,4.3,16,5.4,16
2013/1/18 2:43,4,16,4.1,16,6,1
2013/1/18 2:44,4.2,16,4.2,16,7.5,16
2013/1/18 2:45,4,16,4.2,16,10.2,16
2013/1/18 2:46,3.9,16,3.9,16,6.1,16
2013/1/18 2:47,4.1,16,4.1,16,10.7,1
2013/1/18 2:48,4.2,16,4.2,16,9.8,15
2013/1/18 2:49,4,16,4.1,16,5.7,2
2013/1/18 2:50,4.3,16,4.3,16,10,15
2013/1/18 2:51,4.4,16,4.4,16,6.9,16
2013/1/18 2:52,4.4,16,4.4,16,7.1,16
2013/1/18 2:53,4.4,16,4.5,16,6.4,16
2013/1/18 2:54,4.3,16,4.3,16,7.9,16
2013/1/18 2:55,4.3,16,4.3,16,6.7,16
2013/1/18 2:56,4.3,16,4.4,16,5.8,2
2013/1/18 2:57,4.2,16,4.3,16,8.2,16
2013/1/18 2:58,4.2,16,4.2,16,6,15
2013/1/18 2:59,4.1,16,4.2,16,6.1,1
2013/1/18 3:00,4.1,16,4.1,16,9.1,16
2013/1/18 3:01,4.2,16,4.2,16,9.9,15
2013/1/18 3:02,4.4,16,4.4,16,11,16
2013/1/18 3:03,4.7,16,4.7,16,11.7,16
2013/1/18 3:04,4.7,16,4.7,16,7.2,14
2013/1/18 3:05,4.7,15,4.7,16,7.1,16
2013/1/18 3:06,4.6,15,4.7,16,7.1,12
2013/1/18 3:07,4.5,15,4.6,16,4.4,15
2013/1/18 3:08,4.4,15,4.5,16,4.9,16
2013/1/18 3:09,4.6,15,4.6,16,9.1,13
2013/1/18 3:10,4.7,15,4.7,16,8.4,13
2013/1/18 3:11,4.7,15,4.9,15,9.1,14
2013/1/18 3:12,4.5,15,4.7,15,8.9,16
2013/1/18 3:13,4.4,15,4.5,15,7.6,15
2013/1/18 3:14,4.5,15,4.5,15,7.9,16
2013/1/18 3:15,4.6,15,4.6,15,9,15
2013/1/18 3:16,4.9,15,4.9,15,8.9,1
2013/1/18 3:17,5.2,15,5.2,15,11.1,1
2013/1/18 3:18,5.5,15,5.5,15,8.4,16
2013/1/18 3:19,5.6,15,5.6,15,9.2,15
2013/1/18 3:20,5.4,16,5.5,15,11.3,16
2013/1/18 3:21,5.3,16,5.4,15,6.3,16
2013/1/18 3:22,5.1,16,5.3,15,5.4,15
2013/1/18 3:23,5.2,16,5.2,15,10.6,16
2013/1/18 3:24,5.2,16,5.2,15,10.1,15
2013/1/18 3:25,5.4,16,5.4,15,14.9,15
2013/1/18 3:26,5.6,16,5.6,15,13.5,16
2013/1/18 3:27,5.8,16,5.8,16,11.5,16
2013/1/18 3:28,5.9,16,5.9,16,10.1,15
2013/1/18 3:29,5.7,16,5.9,16,7.7,16
2013/1/18 3:30,5.8,16,5.9,16,10.3,1
2013/1/18 3:31,5.9,16,5.9,16,9.7,16
2013/1/18 3:32,6.3,16,6.3,16,10.7,16
2013/1/18 3:33,6.5,16,6.5,16,10.8,16
2013/1/18 3:34,6.5,16,6.5,16,9.3,1
2013/1/18 3:35,6.3,16,6.6,16,9,15
2013/1/18 3:36,6,16,6.3,16,7.1,16
2013/1/18 3:37,5.5,16,5.9,16,5.4,15
2013/1/18 3:38,5.2,16,5.5,16,6.2,16
2013/1/18 3:39,5.3,16,5.3,16,9.5,16
2013/1/18 3:40,5.1,16,5.3,16,7.9,16
2013/1/18 3:41,4.9,16,5.1,16,6.9,15
2013/1/18 3:42,4.6,16,4.9,16,6.1,15
2013/1/18 3:43,4.4,16,4.6,16,8.4,1
2013/1/18 3:44,4.5,16,4.5,16,10.9,16
2013/1/18 3:45,4.2,16,4.4,16,5.2,16
2013/1/18 3:46,4.3,16,4.3,16,7.7,2
2013/1/18 3:47,4.5,16,4.5,16,9.1,2
2013/1/18 3:48,4.5,16,4.5,16,6,1
2013/1/18 3:49,4.3,16,4.6,16,6.9,1
2013/1/18 3:50,4.2,16,4.3,16,7.9,15
2013/1/18 3:51,4.4,16,4.4,16,7.9,16
2013/1/18 3:52,5.1,16,5.1,16,16.1,16
2013/1/18 3:53,5.3,16,5.3,16,13.9,1
2013/1/18 3:54,5.3,16,5.4,16,12.3,16
2013/1/18 3:55,5.8,16,5.8,16,14.5,16
2013/1/18 3:56,5.8,16,5.9,16,11.5,16
2013/1/18 3:57,5.5,16,5.8,16,4.8,16
2013/1/18 3:58,5.4,16,5.5,16,4.4,15
2013/1/18 3:59,5.5,16,5.5,16,6.9,16
2013/1/18 4:00,5.6,16,5.7,16,9.3,15
2013/1/18 4:01,5.6,16,5.7,16,9.2,15
2013/1/18 4:02,5.4,16,5.6,16,11.7,16
2013/1/18 4:03,5.2,16,5.3,16,10.1,16
2013/1/18 4:04,5.2,16,5.2,16,11.8,15
2013/1/18 4:05,4.8,16,5.2,16,7.5,15
2013/1/18 4:06,4.8,15,4.8,16,7.8,10
2013/1/18 4:07,4.8,15,4.8,16,6.3,2
2013/1/18 4:08,5.2,16,5.2,16,9.1,16
2013/1/18 4:09,5.3,16,5.4,16,7.4,16
2013/1/18 4:10,5.1,16,5.3,16,6.2,1
2013/1/18 4:11,5,16,5.1,16,8.6,15
2013/1/18 4:12,4.6,16,5,16,8.6,16
2013/1/18 4:13,4.4,16,4.6,16,7.2,16
2013/1/18 4:14,4.1,16,4.3,16,10,16
2013/1/18 4:15,4.4,16,4.4,16,11.9,15
2013/1/18 4:16,4.4,16,4.4,16,8.6,16
2013/1/18 4:17,4.7,16,4.7,16,8.4,16
2013/1/18 4:18,4.6,16,4.8,16,9.7,16
2013/1/18 4:19,5,16,5,16,12.6,16
2013/1/18 4:20,4.9,16,5,16,6.7,14
2013/1/18 4:21,4.7,16,4.9,16,3.3,14
2013/1/18 4:22,4.5,16,4.7,16,4.8,16
2013/1/18 4:23,4.4,16,4.5,16,3.6,16
2013/1/18 4:24,4.2,16,4.3,16,6.3,16
2013/1/18 4:25,4,16,4.2,16,7.6,15
2013/1/18 4:26,4.1,15,4.1,16,7.4,15
2013/1/18 4:27,3.8,15,4,16,6.3,3
2013/1/18 4:28,3.7,15,3.7,16,8.6,15
2013/1/18 4:29,3.2,15,3.6,16,7.5,15
2013/1/18 4:30,3.1,15,3.1,16,3.1,3
2013/1/18 4:31,3.1,15,3.1,16,3.3,14
2013/1/18 4:32,3,15,3.1,16,3.8,15
2013/1/18 4:33,3.1,15,3.1,16,3.5,13
2013/1/18 4:34,3,15,3.2,16,3.5,13
2013/1/18 4:35,2.6,15,3,15,2.9,2
2013/1/18 4:36,2.4,16,2.6,15,5.7,5
2013/1/18 4:37,2.4,16,2.4,15,7.9,1
2013/1/18 4:38,2.3,16,2.5,15,5.7,12
2013/1/18 4:39,2.5,16,2.5,15,9.5,1
2013/1/18 4:40,2.8,16,2.8,15,7.4,16
2013/1/18 4:41,3.2,16,3.2,15,8.2,16
2013/1/18 4:42,3.6,16,3.6,16,8.6,16
2013/1/18 4:43,3.9,1,3.9,1,9.5,1
2013/1/18 4:44,4.3,1,4.3,1,8.4,1
2013/1/18 4:45,4.6,16,4.6,16,6.9,1
2013/1/18 4:46,4.6,16,4.7,16,7.7,14
2013/1/18 4:47,4.7,16,4.7,16,6.9,15
2013/1/18 4:48,4.9,16,4.9,16,8.9,1
2013/1/18 4:49,4.9,16,4.9,16,10.5,1
2013/1/18 4:50,5.2,16,5.2,16,9.2,16
2013/1/18 4:51,5.2,1,5.3,16,10.2,15
2013/1/18 4:52,5,1,5.2,16,7.1,16
2013/1/18 4:53,5,16,5,16,10.9,15
2013/1/18 4:54,4.9,16,5,16,6.7,16
2013/1/18 4:55,5,16,5,16,7.9,15
2013/1/18 4:56,5.3,16,5.3,16,10.7,16
2013/1/18 4:57,5.4,16,5.4,16,9.1,14
2013/1/18 4:58,5.4,16,5.5,16,8.4,15
2013/1/18 4:59,5.2,16,5.3,16,7.5,15
2013/1/18 5:00,4.8,16,5.1,16,4.9,16
2013/1/18 5:01,4.7,16,4.8,16,6.8,16
2013/1/18 5:02,4.9,16,4.9,16,7.4,16
2013/1/18 5:03,4.6,16,4.9,16,6.4,16
2013/1/18 5:04,4.5,16,4.6,16,4.8,16
2013/1/18 5:05,4.5,16,4.5,16,7.9,15
2013/1/18 5:06,4.3,16,4.5,16,8.5,2
2013/1/18 5:07,4.1,16,4.3,16,6.9,16
2013/1/18 5:08,4.1,16,4.1,16,6.7,16
2013/1/18 5:09,4.1,16,4.1,16,9,1
2013/1/18 5:10,4.3,16,4.3,16,8.4,16
2013/1/18 5:11,4.2,16,4.4,16,5.4,14
2013/1/18 5:12,3.7,15,4.1,16,2.7,15
2013/1/18 5:13,3.6,16,3.7,16,4.7,15
2013/1/18 5:14,3.7,16,3.7,16,7.2,16
2013/1/18 5:15,3.4,16,3.7,16,5.1,16
2013/1/18 5:16,3.1,16,3.4,16,3.1,15
2013/1/18 5:17,3.1,16,3.1,16,3.6,15
2013/1/18 5:18,2.8,15,3,16,3.3,15
2013/1/18 5:19,2.5,15,2.8,16,3.8,15
2013/1/18 5:20,2.3,15,2.5,16,4.2,16
2013/1/18 5:21,2.4,16,2.4,15,7.8,15
2013/1/18 5:22,2.9,15,2.9,15,8.9,15
2013/1/18 5:23,3,15,3,16,5.8,16
2013/1/18 5:24,3,15,3,16,5.4,15
2013/1/18 5:25,2.9,15,2.9,16,3.2,15
2013/1/18 5:26,3.1,15,3.1,16,4.8,16
2013/1/18 5:27,2.9,15,3,15,2,1
2013/1/18 5:28,2.8,15,2.9,15,2,15
2013/1/18 5:29,2.7,15,2.8,15,5.1,15
2013/1/18 5:30,2.7,15,2.8,15,5.2,15
2013/1/18 5:31,2.5,15,2.6,15,3.3,16
2013/1/18 5:32,2.1,15,2.4,15,2.2,15
2013/1/18 5:33,1.7,15,2,15,1.9,12
2013/1/18 5:34,1.8,15,1.8,15,5.6,15
2013/1/18 5:35,1.9,16,1.9,15,4.2,16
2013/1/18 5:36,1.8,16,1.8,15,3.3,14
2013/1/18 5:37,2,15,2,15,4.3,15
2013/1/18 5:38,2,15,2,15,3.3,16
2013/1/18 5:39,1.9,15,2,15,1.8,1
2013/1/18 5:40,1.8,15,1.9,15,1.8,12
2013/1/18 5:41,1.8,15,1.8,15,3.6,15
2013/1/18 5:42,1.8,16,1.8,15,2.6,2
2013/1/18 5:43,2,16,2,15,4.1,15
2013/1/18 5:44,2,16,2,15,6.7,16
2013/1/18 5:45,2.1,16,2.1,16,5.6,16
2013/1/18 5:46,2.2,16,2.2,16,4.8,16
2013/1/18 5:47,2.1,16,2.2,16,4.8,15
2013/1/18 5:48,2.2,16,2.2,16,3.7,14
2013/1/18 5:49,2.3,16,2.3,16,3.9,15
2013/1/18 5:50,2.6,16,2.6,16,4.7,15
2013/1/18 5:51,2.6,16,2.7,16,4.2,16
2013/1/18 5:52,2.9,16,2.9,16,7.2,16
2013/1/18 5:53,3,16,3,16,7.5,16
2013/1/18 5:54,3.2,16,3.2,16,11,16
2013/1/18 5:55,3.5,16,3.5,16,10.6,16
2013/1/18 5:56,3.8,16,3.8,16,9.7,16
2013/1/18 5:57,4.2,16,4.2,16,9.1,15
2013/1/18 5:58,4.5,16,4.5,16,8.7,16
2013/1/18 5:59,4.8,16,4.8,16,8.1,16
2013/1/18 6:00,4.8,16,4.8,16,8.9,1
2013/1/18 6:01,5,16,5,16,10.3,16
2013/1/18 6:02,5.3,16,5.3,16,9.8,15
2013/1/18 6:03,5.4,16,5.4,16,7.2,1
2013/1/18 6:04,5.2,16,5.4,16,7.8,15
2013/1/18 6:05,4.8,16,5.2,16,3,1
2013/1/18 6:06,4.4,16,4.7,16,5,16
2013/1/18 6:07,4.1,16,4.4,16,5.5,2
2013/1/18 6:08,3.7,16,4.1,16,2.7,1
2013/1/18 6:09,3.5,16,3.7,16,5,16
2013/1/18 6:10,3.2,16,3.5,16,2.5,1
2013/1/18 6:11,2.9,16,3.2,16,3.1,16
2013/1/18 6:12,2.5,16,2.9,16,4.1,5
2013/1/18 6:13,2.3,16,2.5,16,5.1,11
2013/1/18 6:14,2.3,16,2.3,16,6.4,10
2013/1/18 6:15,2.4,16,2.5,16,11.4,8
2013/1/18 6:16,2.6,16,2.6,16,6.5,9
2013/1/18 6:17,2.8,16,2.8,16,9.1,15
2013/1/18 6:18,2.9,15,2.9,16,5.2,16
2013/1/18 6:19,3,15,3,16,5.4,16
2013/1/18 6:20,3,15,3,16,3.3,15
2013/1/18 6:21,3,14,3.1,15,3.8,15
2013/1/18 6:22,3.1,14,3.1,15,6,14
2013/1/18 6:23,3.2,15,3.2,14,5.6,1
2013/1/18 6:24,3.1,15,3.2,14,4.4,16
2013/1/18 6:25,3.1,15,3.2,14,7.5,16
2013/1/18 6:26,3,15,3.1,14,3.6,15
2013/1/18 6:27,3,15,3.1,14,8.9,16
2013/1/18 6:28,2.9,16,3,14,4.1,1
2013/1/18 6:29,3,16,3,14,6.4,1
2013/1/18 6:30,3.1,16,3.1,14,5.7,1
2013/1/18 6:31,3.2,16,3.2,14,6.3,16
2013/1/18 6:32,3.3,16,3.4,16,5.2,16
2013/1/18 6:33,3.4,16,3.4,16,8.2,16
2013/1/18 6:34,3.5,16,3.5,16,4.9,16
2013/1/18 6:35,3.2,16,3.4,16,2.9,15
2013/1/18 6:36,3.3,16,3.3,16,3.7,16
2013/1/18 6:37,2.9,16,3.2,16,2.2,15
2013/1/18 6:38,2.8,16,2.9,16,2.4,1
2013/1/18 6:39,2.9,16,2.9,16,7,16
2013/1/18 6:40,2.8,16,3,16,7.1,1
2013/1/18 6:41,2.6,16,2.8,16,3.3,14
2013/1/18 6:42,2.5,16,2.6,16,6.3,16
2013/1/18 6:43,2.2,16,2.5,16,3.5,16
2013/1/18 6:44,2,16,2.1,16,5.8,13
2013/1/18 6:45,2.1,16,2.1,16,4.8,1
2013/1/18 6:46,2.3,16,2.3,16,6.5,16
2013/1/18 6:47,2.5,16,2.5,16,8.6,15
2013/1/18 6:48,2.7,16,2.7,16,6.5,16
2013/1/18 6:49,2.6,16,2.7,16,4.9,14
2013/1/18 6:50,2.5,16,2.6,16,3.7,16
2013/1/18 6:51,2.7,16,2.7,16,3.6,2
2013/1/18 6:52,2.8,16,2.8,16,5.6,16
2013/1/18 6:53,3,16,3,16,5.4,1
2013/1/18 6:54,3.2,1,3.2,1,6.4,16
2013/1/18 6:55,3.1,16,3.2,1,4.4,1
2013/1/18 6:56,3.1,16,3.1,1,5.2,1
2013/1/18 6:57,2.9,1,3.1,1,4.8,1
2013/1/18 6:58,2.9,1,2.9,1,4.5,15
2013/1/18 6:59,3,1,3,1,5.1,12
2013/1/18 7:00,3.1,1,3.1,1,4.4,16
2013/1/18 7:01,3.1,1,3.1,1,4.2,16
2013/1/18 7:02,3,1,3.1,1,4.9,3
2013/1/18 7:03,3.1,1,3.1,1,6.4,1
2013/1/18 7:04,3.2,1,3.2,1,8.1,16
2013/1/18 7:05,3.4,16,3.4,16,7.2,15
2013/1/18 7:06,3.4,16,3.4,16,6.9,15
2013/1/18 7:07,3.4,16,3.4,16,3.7,15
2013/1/18 7:08,3.2,16,3.4,16,3.7,15
2013/1/18 7:09,3,16,3.2,16,2.4,1
2013/1/18 7:10,3,16,3,16,4.4,1
2013/1/18 7:11,3,16,3,16,8.2,13
2013/1/18 7:12,3.3,15,3.3,16,10.8,10
2013/1/18 7:13,3,16,3.3,16,3.6,10
2013/1/18 7:14,2.7,16,3,16,3.2,5
2013/1/18 7:15,2.7,16,2.7,16,6.8,2
2013/1/18 7:16,2.6,1,2.7,16,5,2
2013/1/18 7:17,2.8,1,2.8,16,6.1,2
2013/1/18 7:18,3.1,1,3.1,16,6.1,15
2013/1/18 7:19,3.4,1,3.4,1,6.5,15
2013/1/18 7:20,3.4,16,3.5,16,5.6,13
2013/1/18 7:21,3.4,16,3.5,16,5.4,10
2013/1/18 7:22,3.1,1,3.4,16,4.9,12
2013/1/18 7:23,3.1,1,3.1,16,2.4,1
2013/1/18 7:24,3,1,3.1,16,3.3,3
2013/1/18 7:25,2.9,1,3.1,16,4.4,2
2013/1/18 7:26,2.9,2,2.9,16,3.6,9
2013/1/18 7:27,2.6,2,2.9,16,4.2,1
2013/1/18 7:28,2.5,3,2.6,16,3.9,16
2013/1/18 7:29,2.2,3,2.4,16,4.1,15
2013/1/18 7:30,2.1,3,2.2,16,5.7,2
2013/1/18 7:31,2.5,2,2.5,16,9.2,16
2013/1/18 7:32,2.9,2,2.9,1,10.1,16
2013/1/18 7:33,3.4,2,3.4,2,9.8,16
2013/1/18 7:34,3.6,1,3.6,1,7.9,16
2013/1/18 7:35,3.7,1,3.7,1,5.7,16
2013/1/18 7:36,3.8,16,3.8,16,5.1,16
2013/1/18 7:37,3.8,16,3.8,16,2.7,16
2013/1/18 7:38,3.8,16,3.8,16,3.7,1
2013/1/18 7:39,3.9,16,3.9,16,5.4,15
2013/1/18 7:40,3.9,16,4,16,3.7,1
2013/1/18 7:41,3.7,16,3.8,16,10.5,16
2013/1/18 7:42,3.6,16,3.7,16,9.3,16
2013/1/18 7:43,3.3,16,3.6,16,6,16
2013/1/18 7:44,3.3,16,3.3,16,6.5,15
2013/1/18 7:45,3.3,16,3.3,16,6.1,15
2013/1/18 7:46,3.3,16,3.4,16,5.4,15
2013/1/18 7:47,3.4,16,3.4,16,5,16
2013/1/18 7:48,3.5,16,3.5,16,6.5,14
2013/1/18 7:49,3.6,16,3.6,16,6.4,15
2013/1/18 7:50,3.7,16,3.7,16,7.5,16
2013/1/18 7:51,3.5,16,3.8,16,4.9,16
2013/1/18 7:52,3.1,15,3.5,16,1.8,13
2013/1/18 7:53,2.9,16,3.1,16,2.5,3
2013/1/18 7:54,2.9,16,2.9,16,7.6,14
2013/1/18 7:55,2.9,15,2.9,16,6.4,13
2013/1/18 7:56,2.9,15,2.9,16,4.4,15
2013/1/18 7:57,2.8,15,2.9,16,3,15
2013/1/18 7:58,2.7,15,2.8,16,4.8,15
2013/1/18 7:59,2.5,14,2.7,16,3.2,14
2013/1/18 8:00,2.3,14,2.4,16,3.5,15
2013/1/18 8:01,2.3,14,2.3,15,4.8,16
2013/1/18 8:02,2.6,14,2.6,15,5.8,15
2013/1/18 8:03,2.7,14,2.7,16,3.8,16
2013/1/18 8:04,2.5,14,2.7,16,3.2,12
2013/1/18 8:05,2.4,14,2.5,15,4.4,10
2013/1/18 8:06,2.4,13,2.4,15,4.4,10
2013/1/18 8:07,2.4,13,2.4,15,5.2,8
2013/1/18 8:08,2.4,13,2.5,15,4.7,12
2013/1/18 8:09,2.3,13,2.4,14,2.2,12
2013/1/18 8:10,2.1,12,2.3,14,1.3,7
2013/1/18 8:11,2,12,2.1,14,2.5,12
2013/1/18 8:12,1.7,11,2,14,1.6,15
2013/1/18 8:13,1.6,11,1.7,14,1.5,12
2013/1/18 8:14,1.4,11,1.6,14,0.6,15
2013/1/18 8:15,1.3,11,1.4,13,4.1,11
2013/1/18 8:16,1.2,11,1.3,13,4.3,9
2013/1/18 8:17,1.2,11,1.2,13,4.7,9
2013/1/18 8:18,1.1,11,1.1,13,3.8,10
2013/1/18 8:19,1.2,11,1.2,13,2.5,12
2013/1/18 8:20,1.4,11,1.4,12,3.9,9
2013/1/18 8:21,1.4,11,1.4,12,2,10
2013/1/18 8:22,1.5,10,1.5,11,3.1,10
2013/1/18 8:23,1.6,10,1.6,11,4.4,9
2013/1/18 8:24,1.7,10,1.7,10,4.2,9
2013/1/18 8:25,1.7,10,1.7,10,4.7,10
2013/1/18 8:26,1.7,10,1.7,10,4.2,10
2013/1/18 8:27,1.8,10,1.8,10,3.2,10
2013/1/18 8:28,1.7,10,1.8,10,2.1,9
2013/1/18 8:29,1.7,10,1.7,10,3.2,9
2013/1/18 8:30,1.7,9,1.8,10,3.7,9
2013/1/18 8:31,1.9,9,1.9,9,6,9
2013/1/18 8:32,2.1,9,2.1,9,6.4,8
2013/1/18 8:33,2,9,2.1,9,3.8,9
2013/1/18 8:34,2.2,9,2.2,9,4.3,9
2013/1/18 8:35,2.3,9,2.3,9,3.7,9
2013/1/18 8:36,2.1,9,2.2,9,4.3,9
2013/1/18 8:37,2.1,9,2.1,9,3,9
2013/1/18 8:38,2.2,9,2.2,9,3.1,9
2013/1/18 8:39,2.2,9,2.2,9,3.3,10
2013/1/18 8:40,2.2,9,2.2,9,2.1,9
2013/1/18 8:41,2,9,2.2,9,2.6,9
2013/1/18 8:42,1.8,9,1.9,9,2.9,9
2013/1/18 8:43,1.8,9,1.9,9,2.5,10
2013/1/18 8:44,1.6,10,1.8,9,1.5,8
2013/1/18 8:45,1.4,9,1.6,9,0.6,8
2013/1/18 8:46,1.3,9,1.4,9,0.4,10
2013/1/18 8:47,1.2,9,1.3,9,1.8,8
2013/1/18 8:48,1.1,9,1.2,9,2.5,8
2013/1/18 8:49,1.1,9,1.1,9,4.4,9
2013/1/18 8:50,1.2,9,1.2,9,3.8,8
2013/1/18 8:51,1.1,9,1.2,9,2.6,10
2013/1/18 8:52,1.1,9,1.1,9,2.6,8
2013/1/18 8:53,1.1,9,1.1,9,2.4,10
2013/1/18 8:54,1.2,9,1.2,10,2.6,10
2013/1/18 8:55,1.3,9,1.3,9,2.9,11
2013/1/18 8:56,1.5,10,1.5,10,3.7,8
2013/1/18 8:57,1.6,10,1.6,10,4.1,10
2013/1/18 8:58,1.6,10,1.6,10,2.2,9
2013/1/18 8:59,1.7,10,1.7,10,4.5,12
2013/1/18 9:00,1.7,10,1.7,10,4.7,11
2013/1/18 9:01,1.9,10,1.9,10,4.9,11
2013/1/18 9:02,2.1,11,2.1,11,6.9,9
2013/1/18 9:03,2.1,11,2.1,11,5.6,9
2013/1/18 9:04,2.3,11,2.3,11,4.4,11
2013/1/18 9:05,2.3,11,2.3,11,3.1,11
2013/1/18 9:06,2.5,11,2.5,11,4.3,9
2013/1/18 9:07,2.5,11,2.5,11,4.2,9
2013/1/18 9:08,2.7,11,2.7,11,4.1,12
2013/1/18 9:09,2.6,11,2.7,11,3,13
2013/1/18 9:10,2.6,11,2.6,11,4.4,12
2013/1/18 9:11,2.7,11,2.7,11,6.8,15
2013/1/18 9:12,2.8,12,2.8,12,7.4,13
2013/1/18 9:13,3.1,12,3.1,12,6.2,12
2013/1/18 9:14,3.1,12,3.1,12,5.6,9
2013/1/18 9:15,3.2,12,3.2,12,4.3,10
2013/1/18 9:16,3,12,3.2,12,3.2,11
2013/1/18 9:17,3,12,3.1,12,3.8,13
2013/1/18 9:18,2.8,12,2.9,12,1.8,10
2013/1/18 9:19,2.8,12,2.8,12,2.7,11
2013/1/18 9:20,2.7,12,2.8,12,2,16
2013/1/18 9:21,2.4,11,2.7,12,2.4,9
2013/1/18 9:22,2.1,11,2.3,12,2.2,10
2013/1/18 9:23,1.7,11,2,12,2.9,8
2013/1/18 9:24,1.4,11,1.7,12,2.5,10
2013/1/18 9:25,1.5,11,1.5,12,5.1,10
2013/1/18 9:26,1.5,11,1.5,12,4.8,11
2013/1/18 9:27,1.5,10,1.5,12,3.2,11
2013/1/18 9:28,1.5,11,1.6,12,2.4,10
2013/1/18 9:29,1.5,11,1.5,12,3.2,14
2013/1/18 9:30,1.6,11,1.6,12,3.3,12
2013/1/18 9:31,1.8,11,1.8,11,4.3,12
2013/1/18 9:32,2,12,2,11,3.8,13
2013/1/18 9:33,2.2,12,2.2,12,3.5,12
2013/1/18 9:34,2.4,12,2.4,12,4.7,15
2013/1/18 9:35,2.5,13,2.6,13,6.2,14
2013/1/18 9:36,2.4,13,2.5,13,5.8,15
2013/1/18 9:37,2.4,13,2.4,13,3.6,11
2013/1/18 9:38,2.6,13,2.6,13,5.2,11
2013/1/18 9:39,2.7,13,2.7,13,3.9,10
2013/1/18 9:40,2.9,12,3,13,8.5,12
2013/1/18 9:41,2.8,12,2.9,13,3,11
2013/1/18 9:42,2.7,12,2.8,13,3.6,12
2013/1/18 9:43,2.5,12,2.7,13,2.5,10
2013/1/18 9:44,2.4,12,2.5,13,3.3,10
2013/1/18 9:45,2.2,11,2.4,13,2,10
2013/1/18 9:46,2.3,11,2.3,13,5,10
2013/1/18 9:47,2.4,11,2.5,13,3.9,9
2013/1/18 9:48,2.5,11,2.5,13,4.5,12
2013/1/18 9:49,2.6,11,2.6,13,5.8,9
2013/1/18 9:50,2.5,11,2.6,12,5.8,9
2013/1/18 9:51,2.7,11,2.7,12,5.5,10
2013/1/18 9:52,2.8,10,2.8,11,5.6,10
2013/1/18 9:53,2.9,11,2.9,11,2.7,10
2013/1/18 9:54,2.8,11,2.9,11,2,10
2013/1/18 9:55,2.8,11,2.8,11,3.6,16
2013/1/18 9:56,2.6,11,2.8,11,3.1,15
2013/1/18 9:57,2.5,11,2.6,11,2.6,1
2013/1/18 9:58,2.2,11,2.5,11,0.9,9
2013/1/18 9:59,1.9,12,2.2,11,2.7,11
2013/1/18 10:00,1.7,12,1.9,11,2,10
2013/1/18 10:01,1.5,13,1.7,11,3.6,13
2013/1/18 10:02,1.3,13,1.5,11,2.7,12
2013/1/18 10:03,1.4,13,1.4,11,3.8,10
2013/1/18 10:04,1.6,13,1.6,11,3.7,11
2013/1/18 10:05,1.6,12,1.6,11,3.2,11
2013/1/18 10:06,1.7,12,1.7,11,4.1,12
2013/1/18 10:07,1.8,12,1.8,11,3.5,12
2013/1/18 10:08,1.9,12,1.9,12,2,14
2013/1/18 10:09,2,12,2,12,3.9,10
2013/1/18 10:10,2.2,12,2.2,12,5.6,9
2013/1/18 10:11,2.1,12,2.2,12,3.3,16
2013/1/18 10:12,2.1,12,2.1,12,3.9,16
2013/1/18 10:13,2,12,2.1,12,3.5,11
2013/1/18 10:14,2.1,12,2.1,12,4.1,12
2013/1/18 10:15,2.2,12,2.2,12,5.7,10
2013/1/18 10:16,2.3,12,2.3,12,5.8,10
2013/1/18 10:17,2.3,12,2.3,12,5,10
2013/1/18 10:18,2.5,12,2.5,12,3.7,10
2013/1/18 10:19,2.3,12,2.5,12,1.8,9
2013/1/18 10:20,2.2,11,2.3,12,4.1,8
2013/1/18 10:21,2.1,11,2.2,12,2.1,7
2013/1/18 10:22,2.1,11,2.1,12,3.1,10
2013/1/18 10:23,2.1,10,2.2,12,4.2,11
2013/1/18 10:24,1.9,10,2.1,12,1.3,15
2013/1/18 10:25,1.7,11,1.9,12,3,1
2013/1/18 10:26,1.4,11,1.7,12,1.5,12
2013/1/18 10:27,1.2,12,1.4,12,3.1,12
2013/1/18 10:28,1.3,13,1.3,12,3.1,12
2013/1/18 10:29,1.4,13,1.4,12,2.9,15
2013/1/18 10:30,1.4,13,1.4,11,2.4,13
2013/1/18 10:31,1.5,13,1.5,11,3.5,13
2013/1/18 10:32,1.5,13,1.5,11,3.9,1
2013/1/18 10:33,1.6,14,1.6,10,4.3,16
2013/1/18 10:34,1.8,14,1.8,10,4.8,14
2013/1/18 10:35,2,14,2,14,5.8,14
2013/1/18 10:36,2.1,14,2.1,13,4.3,15
2013/1/18 10:37,2.3,13,2.3,13,4.3,15
2013/1/18 10:38,2.3,14,2.3,13,3.6,12
2013/1/18 10:39,2.2,13,2.3,13,2,9
2013/1/18 10:40,2.4,14,2.4,14,6,16
2013/1/18 10:41,2.4,14,2.4,14,5.1,15
2013/1/18 10:42,2.5,14,2.5,14,2.9,14
2013/1/18 10:43,2.3,13,2.4,14,2.2,3
2013/1/18 10:44,2.2,13,2.3,14,2.6,10
2013/1/18 10:45,2.2,13,2.2,14,3.2,8
2013/1/18 10:46,2.2,12,2.2,14,5,7
2013/1/18 10:47,2.2,11,2.2,14,5.6,9
2013/1/18 10:48,2.2,10,2.2,14,4.7,9
2013/1/18 10:49,2.4,10,2.4,14,4.5,10
2013/1/18 10:50,2.3,10,2.4,14,3.2,9
2013/1/18 10:51,2.1,10,2.3,14,3.1,9
2013/1/18 10:52,2.1,9,2.1,14,2,8
2013/1/18 10:53,2.1,9,2.1,10,2.4,9
2013/1/18 10:54,2,9,2,10,2.4,8
2013/1/18 10:55,1.9,9,2,10,2.1,8
2013/1/18 10:56,1.7,9,1.9,10,1.4,11
2013/1/18 10:57,1.4,10,1.7,10,1.3,13
2013/1/18 10:58,1.5,10,1.5,10,3,13
2013/1/18 10:59,1.4,11,1.5,10,3.1,13
2013/1/18 11:00,1.4,11,1.4,10,2.5,13
2013/1/18 11:01,1.3,12,1.4,10,1.8,13